Andover, NJ

5:41 PM EDT on June 22, 2017 (GMT -0400)
Andover

Weather History for K12N - October, 2014

Change the Weather History Date:

Saturday, October 25, 2014

  Actual Average (KFWN) Record (KFWN)
Temperature  
Mean Temperature 52 °F -  
Max Temperature 66 °F 60 °F 83 °F (1963)
Min Temperature 37 °F 34 °F 18 °F (1969)
Degree Days  
Heating Degree Days 14    
Growing Degree Days 2 (Base 50)    
Moisture  
Dew Point 39 °F    
Average Humidity 60    
Maximum Humidity 93    
Minimum Humidity 40    
Precipitation  
Precipitation 0.12 in - - ()
Sea Level Pressure  
Sea Level Pressure 29.77 in    
Wind  
Wind Speed 4 mph (SW)    
Max Wind Speed 8 mph    
Max Gust Speed -    
Averages and records for this station are not official NWS values.
T = Trace of Precipitation, MM = Missing Value Source: NWS Daily Summary

Daily Weather History Graph

Daily Weather History Graph

Search for Another Location

Airport or City:

Trip Planner

Search our weather history database for the weather conditions in past years. The results will help you decide how hot, cold, wet, or windy it might be!

Date:

Astronomy

Oct. 25, 2014 Rise Set
Actual Time 7:21 AM EDT 6:03 PM EDT
Civil Twilight 6:53 AM EDT 6:31 PM EDT
Nautical Twilight 6:21 AM EDT 7:04 PM EDT
Astronomical Twilight 5:49 AM EDT 7:35 PM EDT
Moon 8:58 AM EDT (10/25) 7:24 PM EDT (10/25)
Length of Visible Light 11h 38m
Length of Day
10h 42m
Waxing Crescent, 3% of the Moon is Illuminated
Oct 25
Waxing Crescent
Oct 30
First Quarter
Nov 6
Full
Nov 14
Last Quarter
Nov 22
New

Hourly Weather History & Observations

Time (EDT) Temp. Dew Point Humidity Pressure Visibility Wind Dir Wind Speed Gust Speed Precip Events Conditions
12:54 AM 52.0 °F 34.0 °F 50% 29.88 in - NNW 8.1 mph - N/A   Unknown
1:54 AM 50.0 °F 32.0 °F 50% 29.89 in - NNW 6.9 mph - N/A   Unknown
2:54 AM 46.9 °F 34.0 °F 61% 29.89 in - Calm Calm - N/A   Unknown
3:54 AM 42.1 °F 33.1 °F 70% 29.89 in - Calm Calm - N/A   Unknown
4:54 AM 37.9 °F 35.1 °F 89% 29.90 in - Calm Calm - N/A   Unknown
5:54 AM 37.0 °F 35.1 °F 93% 29.89 in - Calm Calm - N/A   Unknown
6:54 AM 37.0 °F 34.0 °F 89% 29.90 in - Calm Calm - N/A   Unknown
7:54 AM 37.0 °F 35.1 °F 93% 29.90 in - Calm Calm - N/A   Unknown
8:54 AM 44.1 °F 37.0 °F 76% 29.88 in - Calm Calm - N/A   Unknown
9:54 AM 53.1 °F 36.0 °F 52% 29.87 in - SW 4.6 mph - N/A   Unknown
10:54 AM 59.0 °F 37.9 °F 46% 29.85 in - Variable 4.6 mph - N/A   Unknown
11:54 AM 62.1 °F 39.0 °F 43% 29.81 in - Variable 6.9 mph - N/A   Unknown
12:54 PM 63.0 °F 39.9 °F 43% 29.76 in - North - - N/A   Unknown
1:54 PM 64.9 °F 41.0 °F 42% 29.73 in - Variable 6.9 mph - N/A   Unknown
2:54 PM 66.0 °F 41.0 °F 40% 29.70 in - SW 8.1 mph - N/A   Unknown
3:54 PM 66.0 °F 42.1 °F 42% 29.68 in - Variable 6.9 mph - N/A   Unknown
4:54 PM 66.0 °F 41.0 °F 40% 29.67 in - Variable 5.8 mph - N/A   Unknown
5:54 PM 63.0 °F 42.1 °F 46% 29.65 in - Variable 4.6 mph - N/A   Unknown
6:54 PM 62.1 °F 43.0 °F 50% 29.65 in - Variable 5.8 mph - N/A   Unknown
7:54 PM 60.1 °F 43.0 °F 53% 29.64 in - SW 6.9 mph - N/A   Unknown
8:54 PM 57.9 °F 43.0 °F 58% 29.62 in - SSW 3.5 mph - N/A   Unknown
9:54 PM 57.9 °F 43.0 °F 58% 29.60 in - South 3.5 mph - N/A   Unknown
10:54 PM 54.0 °F 44.1 °F 69% 29.59 in - Calm Calm - N/A   Unknown
11:54 PM 53.1 °F 51.1 °F 93% 29.60 in - Calm Calm - 0.12 in   Unknown